GW1869 Weather Reports


time (UTC)temp
C
wind
direction
speed
KPH
gust
KPH
rain 1hr
cm
rain 24hr
cm
rain mn
cm
humidity
%
barometer
mb
20260506024600 18 259 1.6 6.4 0.00 1.12 0.41 38 1012.6
20260506024047 18 280 1.6 9.7 0.00 1.12 0.41 37 1012.5
20260506023547 18 279 1.6 11.3 0.00 1.12 0.41 36 1012.5
20260506023055 18 295 3.2 11.3 0.00 1.12 0.41 35 1012.3
20260506022548 19 283 4.8 12.9 0.00 1.12 0.41 35 1012.2
20260506022046 19 286 3.2 12.9 0.00 1.12 0.41 34 1012.2
20260506021811 19 285 4.8 11.3 0.00 1.12 0.41 34 1012.1
20260506020111 20 285 4.8 9.7 0.00 1.12 0.41 34 1011.8
20260506015547 20 307 4.8 11.3 0.00 1.24 0.41 34 1011.8
20260506015046 20 269 6.4 11.3 0.00 1.24 0.41 35 1011.7
20260506014610 20 290 3.2 14.5 0.00 1.24 0.41 35 1011.7
20260506014046 20 299 6.4 17.7 0.00 1.24 0.41 34 1011.7
20260506013547 20 319 9.7 17.7 0.00 1.24 0.41 33 1011.7
20260506013057 20 303 8.0 16.1 0.00 1.24 0.41 33 1011.7
20260506012547 21 274 8.0 17.7 0.00 1.24 0.41 34 1011.6
20260506012048 21 309 11.3 17.7 0.00 1.24 0.41 34 1011.6
20260506011617 21 295 4.8 11.3 0.00 1.24 0.41 34 1011.5
20260506011047 21 288 3.2 19.3 0.00 1.24 0.41 33 1011.4
20260506010549 21 253 4.8 22.5 0.00 1.24 0.41 33 1011.4
20260506010053 21 299 9.7 22.5 0.00 1.24 0.41 33 1011.3
20260506005548 21 310 8.0 16.1 0.00 1.32 0.41 31 1011.3
20260506005047 21 278 4.8 12.9 0.00 1.32 0.41 30 1011.3
20260506004601 22 302 4.8 11.3 0.00 1.32 0.41 30 1011.2
20260506004048 22 301 6.4 11.3 0.00 1.32 0.41 29 1011.1
20260506003547 22 310 3.2 14.5 0.00 1.32 0.41 29 1011.1
20260506003052 22 271 6.4 17.7 0.00 1.32 0.41 28 1011.0
20260506002548 22 287 8.0 17.7 0.00 1.32 0.41 29 1011.0
20260506002045 23 280 6.4 14.5 0.00 1.32 0.41 27 1011.0
20260506001601 23 296 3.2 11.3 0.00 1.32 0.41 28 1011.0
20260506001047 22 326 3.2 11.3 0.00 1.32 0.41 27 1010.9
20260506000551 23 276 3.2 17.7 0.00 1.32 0.41 27 1011.0
20260506000117 23 304 4.8 17.7 0.00 1.32 0.41 28 1010.9
20260505235550 24 291 4.8 11.3 0.00 1.32 0.41 27 1010.8
20260505235047 24 279 4.8 11.3 0.00 1.32 0.41 27 1010.9
20260505234556 24 261 4.8 9.7 0.00 1.32 0.41 26 1010.8
20260505234047 24 259 3.2 14.5 0.00 1.32 0.41 26 1010.8
20260505233548 23 332 6.4 14.5 0.00 1.32 0.41 27 1010.7
20260505233059 23 271 6.4 14.5 0.00 1.32 0.41 27 1010.8
20260505232546 23 250 4.8 12.9 0.00 1.32 0.41 26 1010.8
20260505232050 23 259 6.4 12.9 0.00 1.32 0.41 27 1010.8
20260505231601 23 242 3.2 8.0 0.00 1.32 0.41 30 1010.7
20260505231051 22 269 0.0 11.3 0.00 1.32 0.41 32 1010.8
20260505230545 22 231 3.2 11.3 0.00 1.32 0.41 31 1010.8
20260505230237 22 188 3.2 9.7 0.00 1.32 0.41 31 1010.9
20260505225549 23 0 1.6 8.0 0.00 1.32 0.41 30 1011.0
20260505225046 23 257 1.6 9.7 0.00 1.32 0.41 31 1011.0
20260505224557 22 288 3.2 9.7 0.00 1.32 0.41 31 1011.0
20260505224048 23 323 3.2 9.7 0.00 1.32 0.41 31 1011.2
20260505223551 23 139 3.2 9.7 0.00 1.32 0.41 30 1011.0
20260505223054 23 251 3.2 12.9 0.00 1.32 0.41 30 1011.1
20260505222547 23 226 3.2 12.9 0.00 1.32 0.41 29 1011.3
20260505222047 24 276 3.2 12.9 0.00 1.32 0.41 28 1011.2
20260505221600 24 0 3.2 11.3 0.00 1.32 0.41 29 1011.2
20260505221047 24 317 6.4 11.3 0.00 1.32 0.41 30 1011.4
20260505220550 24 275 3.2 9.7 0.00 1.32 0.41 30 1011.3
20260505220051 23 267 3.2 11.3 0.00 1.32 0.41 32 1011.5
20260505215548 23 241 1.6 14.5 0.00 1.32 0.41 34 1011.4
20260505215048 24 217 4.8 14.5 0.00 1.32 0.41 32 1011.6
20260505214550 24 295 6.4 14.5 0.00 1.32 0.41 30 1011.6
20260505214051 24 293 8.0 12.9 0.00 1.32 0.41 28 1011.7
20260505213548 25 300 4.8 11.3 0.00 1.32 0.41 31 1011.7
20260505213055 24 64 4.8 12.9 0.00 1.32 0.41 29 1011.7
20260505212547 24 281 4.8 17.7 0.00 1.32 0.41 30 1011.7
20260505212047 24 323 6.4 17.7 0.00 1.32 0.41 28 1011.9
20260505211552 25 269 6.4 17.7 0.00 1.32 0.41 28 1011.9
20260505211047 24 273 3.2 14.5 0.00 1.32 0.41 30 1011.8
20260505210548 24 206 6.4 20.9 0.00 1.32 0.41 31 1011.7
20260505210049 24 261 6.4 20.9 0.00 1.32 0.41 29 1011.9
20260505205548 24 285 4.8 14.5 0.00 1.32 0.41 31 1011.9
20260505205048 24 325 4.8 17.7 0.00 1.32 0.41 33 1011.9
20260505204600 24 174 8.0 17.7 0.00 1.32 0.41 34 1012.1
20260505204048 24 288 3.2 9.7 0.00 1.32 0.41 35 1012.0
20260505203547 24 257 3.2 16.1 0.00 1.32 0.41 36 1012.0
20260505203059 23 262 3.2 16.1 0.00 1.32 0.41 34 1012.0
20260505202548 24 238 3.2 9.7 0.00 1.32 0.41 36 1012.1
20260505202047 23 252 1.6 9.7 0.00 1.32 0.41 40 1012.0
20260505201552 22 248 4.8 12.9 0.00 1.32 0.41 41 1012.1
20260505201047 22 123 3.2 12.9 0.00 1.32 0.41 41 1012.2
20260505200547 21 274 6.4 12.9 0.00 1.32 0.41 42 1012.2
20260505200054 21 207 1.6 8.0 0.00 1.32 0.41 44 1012.2
20260505195547 21 294 3.2 8.0 0.00 1.32 0.41 51 1012.3
20260505195048 21 326 0.0 4.8 0.00 1.32 0.41 51 1012.2
20260505194606 21 236 0.0 4.8 0.00 1.32 0.41 51 1012.3
20260505194047 20 0 0.0 4.8 0.00 1.32 0.41 51 1012.3
20260505193548 20 0 0.0 6.4 0.00 1.32 0.41 52 1012.3
20260505193101 21 152 0.0 6.4 0.00 1.32 0.41 53 1012.3
20260505192548 20 0 3.2 11.3 0.00 1.32 0.41 53 1012.5
20260505192048 20 312 4.8 11.3 0.00 1.32 0.41 53 1012.5
20260505191606 20 318 4.8 11.3 0.00 1.32 0.41 52 1012.5
20260505191050 20 52 3.2 9.7 0.00 1.32 0.41 51 1012.4
20260505190548 20 23 1.6 4.8 0.00 1.32 0.41 54 1012.7
20260505190055 21 322 0.0 4.8 0.00 1.32 0.41 53 1012.7
20260505185547 21 32 0.0 4.8 0.00 1.32 0.41 54 1012.8
20260505185047 20 0 0.0 4.8 0.00 1.32 0.41 55 1013.0
20260505184555 20 0 0.0 6.4 0.00 1.32 0.41 58 1013.2
20260505184047 20 25 1.6 6.4 0.00 1.32 0.41 55 1013.3
20260505183546 20 0 0.0 4.8 0.00 1.32 0.41 55 1013.4
20260505183055 19 301 0.0 4.8 0.00 1.32 0.41 59 1013.4
20260505182550 19 0 0.0 4.8 0.00 1.32 0.41 56 1013.4
20260505182051 20 129 0.0 4.8 0.00 1.32 0.41 57 1013.5
20260505181554 19 275 1.6 4.8 0.00 1.32 0.41 61 1013.6
20260505181048 19 0 1.6 4.8 0.00 1.32 0.41 59 1013.6
20260505180547 18 0 1.6 4.8 0.00 1.32 0.41 61 1013.5
20260505180056 19 22 1.6 6.4 0.00 1.32 0.41 60 1013.5
20260505175548 19 328 1.6 8.0 0.00 1.32 0.41 60 1013.7
20260505175048 19 0 1.6 8.0 0.00 1.32 0.41 61 1013.5
20260505174553 19 333 1.6 6.4 0.00 1.32 0.41 60 1013.7
20260505174047 19 9 1.6 6.4 0.00 1.32 0.41 59 1013.6
20260505173548 20 286 3.2 6.4 0.00 1.32 0.41 60 1013.8
20260505173112 20 0 0.0 6.4 0.00 1.32 0.41 62 1013.6
20260505172547 20 302 1.6 6.4 0.00 1.32 0.41 59 1013.7
20260505172047 20 0 0.0 3.2 0.00 1.32 0.41 56 1013.8
20260505171618 20 0 0.0 1.6 0.00 1.32 0.41 60 1013.8
20260505171047 19 0 0.0 1.6 0.00 1.32 0.41 59 1013.8
20260505170546 19 0 0.0 3.2 0.00 1.32 0.41 60 1013.7
20260505170052 18 0 0.0 6.4 0.00 1.32 0.41 63 1013.7
20260505165548 18 316 1.6 6.4 0.00 1.32 0.41 65 1013.6
20260505165048 18 295 1.6 6.4 0.00 1.32 0.41 68 1013.6
20260505164555 17 0 0.0 4.8 0.00 1.32 0.41 64 1013.6
20260505164048 17 0 0.0 1.6 0.00 1.32 0.41 68 1013.6
20260505163728 17 0 0.0 1.6 0.00 1.32 0.41 68 1013.6
20260505163056 17 0 0.0 1.6 0.00 1.32 0.41 69 1013.8
20260505162548 17 0 0.0 1.6 0.00 1.32 0.41 72 1013.9
20260505162048 17 0 0.0 1.6 0.00 1.32 0.41 74 1013.9
20260505161556 17 0 0.0 1.6 0.00 1.32 0.41 74 1013.9
20260505161049 17 0 0.0 1.6 0.00 1.32 0.41 74 1013.9
20260505160550 17 0 0.0 1.6 0.00 1.32 0.41 73 1013.9
20260505153052 16 0 0.0 1.6 0.00 1.32 0.41 78 1013.5
20260505152548 16 0 0.0 1.6 0.00 1.32 0.41 77 1013.4
20260505152049 16 0 0.0 1.6 0.00 1.32 0.41 78 1013.4
20260505151554 16 0 0.0 1.6 0.00 1.32 0.41 78 1013.4
20260505151049 16 0 0.0 1.6 0.00 1.32 0.41 80 1013.3
20260505150548 16 117 0.0 1.6 0.00 1.32 0.41 81 1013.4
20260505150125 16 0 0.0 1.6 0.00 1.32 0.41 81 1013.3
20260505140548 15 0 0.0 0.0 0.00 1.32 0.41 84 1013.0
20260505130105 13 0 0.0 1.6 0.03 1.32 0.41 87 1012.6
20260505124559 13 0 0.0 0.0 0.03 1.32 0.41 89 1012.4
20260505124052 13 0 0.0 0.0 0.03 1.32 0.41 89 1012.4
20260505123553 13 0 0.0 0.0 0.03 1.32 0.41 89 1012.5
20260505123101 13 0 0.0 0.0 0.03 1.32 0.41 90 1012.5
20260505122548 13 0 0.0 0.0 0.03 1.32 0.41 89 1012.3
20260505122049 13 0 0.0 0.0 0.03 1.32 0.41 88 1012.4
20260505121621 13 0 0.0 0.0 0.03 1.32 0.41 87 1012.4
20260505121049 13 0 0.0 0.0 0.00 1.30 0.38 86 1011.9
20260505120548 13 0 0.0 1.6 0.00 1.30 0.38 85 1012.2
20260505120055 13 0 0.0 1.6 0.00 1.30 0.38 84 1012.1
20260505115546 13 0 0.0 1.6 0.00 1.30 0.38 84 1012.1
20260505115048 13 75 0.0 3.2 0.00 1.30 0.38 84 1012.1
20260505114554 13 58 0.0 3.2 0.03 1.30 0.38 82 1012.1
20260505114048 13 0 0.0 3.2 0.03 1.30 0.38 84 1012.1
20260505113548 13 53 0.0 3.2 0.03 1.30 0.38 88 1012.0
20260505113056 13 0 0.0 1.6 0.03 1.30 0.38 89 1012.4
20260505112549 13 0 0.0 1.6 0.03 1.30 0.38 89 1012.5
20260505112047 13 0 0.0 3.2 0.03 1.30 0.38 89 1012.3
20260505111555 13 0 0.0 3.2 0.05 1.30 0.38 89 1012.3
20260505111050 13 0 0.0 3.2 0.05 1.30 0.38 88 1012.4
20260505110552 13 0 0.0 1.6 0.05 1.30 0.38 89 1012.3
20260505102047 13 61 0.0 3.2 0.10 1.27 0.36 90 1013.1
20260505101557 13 59 0.0 3.2 0.08 1.24 0.33 90 1013.4
20260505101047 13 0 0.0 3.2 0.10 1.24 0.33 90 1013.5
20260505100551 13 59 0.0 3.2 0.10 1.24 0.33 90 1013.6
20260505100310 13 0 0.0 1.6 0.10 1.24 0.33 90 1013.7
20260505095551 13 0 0.0 4.8 0.10 1.24 0.33 90 1013.7
20260505095050 13 77 0.0 4.8 0.10 1.24 0.33 90 1013.7
20260505094553 13 80 1.6 6.4 0.13 1.24 0.33 90 1013.7
20260505094047 13 79 1.6 8.0 0.13 1.24 0.33 90 1013.7
20260505093549 13 53 3.2 9.7 0.10 1.22 0.30 90 1013.6
20260505093054 13 86 3.2 11.3 0.08 1.19 0.28 90 1013.8
20260505092552 13 77 4.8 11.3 0.05 1.17 0.25 90 1014.1
20260505092050 13 87 1.6 9.7 0.08 1.17 0.25 91 1014.3
20260505091612 13 127 3.2 9.7 0.08 1.17 0.25 91 1014.1
20260505091046 14 131 4.8 9.7 0.05 1.14 0.23 91 1014.1
20260505090547 14 124 3.2 17.7 0.08 1.14 0.23 91 1014.1
20260505090059 14 96 3.2 17.7 0.08 1.14 0.23 90 1014.1
20260505085547 14 120 3.2 6.4 0.10 1.14 0.23 89 1014.3
20260505085049 14 142 1.6 6.4 0.10 1.14 0.23 89 1014.5
20260505084550 14 86 1.6 4.8 0.10 1.12 0.20 89 1014.4
20260505084406 14 77 1.6 3.2 0.10 1.12 0.20 89 1014.7
20260505082549 14 0 0.0 0.0 0.15 1.12 0.20 89 1015.5
20260505082047 14 0 0.0 0.0 0.13 1.09 0.18 89 1015.4
20260505081557 14 0 0.0 0.0 0.15 1.09 0.18 89 1015.4
20260505081049 14 0 0.0 0.0 0.15 1.09 0.18 89 1015.6
20260505080546 14 0 0.0 0.0 0.13 1.07 0.15 90 1015.7
20260505080054 14 0 0.0 0.0 0.15 1.07 0.15 89 1015.8
20260505075548 14 0 0.0 0.0 0.13 1.04 0.13 90 1016.0
20260505075048 14 0 0.0 0.0 0.15 1.04 0.13 89 1016.1
20260505074555 14 0 0.0 0.0 0.13 1.02 0.10 90 1016.1
20260505074050 14 0 0.0 0.0 0.15 1.02 0.10 89 1016.2
20260505073547 14 0 0.0 0.0 0.13 0.99 0.08 89 1016.4
20260505073100 14 0 0.0 0.0 0.13 0.99 0.08 88 1016.2
20260505072548 14 0 0.0 0.0 0.13 0.97 0.05 89 1016.0
20260505072051 14 54 0.0 0.0 0.18 0.97 0.05 89 1016.1
20260505071555 14 0 0.0 1.6 0.18 0.94 0.03 88 1016.0
20260505071048 14 0 0.0 1.6 0.20 0.94 0.03 88 1016.1
20260505070549 14 0 0.0 1.6 0.23 0.94 0.03 87 1016.1
20260505070056 14 0 0.0 1.6 0.23 0.91 0.00 86 1015.8
20260505065548 14 0 0.0 1.6 0.25 0.91 0.91 85 1015.9
20260505065048 14 0 0.0 1.6 0.25 0.89 0.89 87 1015.9
20260505064557 14 0 0.0 1.6 0.28 0.89 0.89 87 1015.9
20260505064048 14 55 0.0 1.6 0.28 0.86 0.86 88 1015.9
20260505063549 14 0 0.0 3.2 0.30 0.86 0.86 87 1015.7
20260505063055 14 0 0.0 3.2 0.30 0.84 0.84 87 1015.8
20260505062549 14 27 0.0 1.6 0.30 0.84 0.84 87 1015.8
20260505062049 14 0 0.0 1.6 0.28 0.79 0.79 87 1015.9
20260505061555 14 0 0.0 3.2 0.28 0.76 0.76 87 1015.8
20260505061048 14 46 0.0 3.2 0.25 0.74 0.74 87 1016.0
20260505060551 14 0 0.0 3.2 0.23 0.71 0.71 88 1016.0
20260505060059 14 51 0.0 1.6 0.23 0.69 0.69 88 1015.8
20260505055548 14 48 0.0 1.6 0.18 0.64 0.64 87 1016.0
20260505055048 14 25 0.0 3.2 0.18 0.64 0.64 87 1015.9
20260505054620 15 0 0.0 4.8 0.18 0.61 0.61 87 1015.7
20260505054048 15 357 1.6 4.8 0.15 0.58 0.58 86 1015.8
20260505053549 15 35 0.0 3.2 0.13 0.56 0.56 84 1015.9
20260505053058 15 84 0.0 1.6 0.10 0.53 0.53 87 1016.0
20260505052637 15 0 0.0 1.6 0.08 0.51 0.51 87 1015.9
20260505051049 15 0 0.0 1.6 0.08 0.48 0.48 86 1015.8
20260505050548 15 0 0.0 1.6 0.08 0.48 0.48 86 1015.7
20260505041604 15 0 1.6 6.4 0.00 0.41 0.41 80 1016.0
20260505041049 15 298 0.0 1.6 0.00 0.41 0.41 81 1015.8
20260505040549 15 0 0.0 1.6 0.03 0.41 0.41 80 1016.0
20260505040100 15 0 0.0 1.6 0.03 0.41 0.41 81 1016.0
20260505035546 15 44 0.0 3.2 0.03 0.41 0.41 80 1015.8
20260505035048 15 44 0.0 3.2 0.05 0.41 0.41 80 1015.7
20260505034555 14 0 0.0 8.0 0.05 0.41 0.41 80 1015.6
20260505034048 14 86 1.6 8.0 0.08 0.41 0.41 79 1015.4
20260505033548 14 138 3.2 9.7 0.08 0.41 0.41 80 1015.2
20260505033052 14 0 0.0 14.5 0.10 0.41 0.41 80 1015.0
20260505032547 14 57 6.4 14.5 0.10 0.41 0.41 77 1014.9
20260505032052 13 57 4.8 11.3 0.13 0.41 0.41 76 1014.7
20260505031604 13 84 3.2 11.3 0.13 0.41 0.41 77 1014.9
20260505031048 13 80 3.2 11.3 0.15 0.41 0.41 78 1015.2
20260505030549 13 92 3.2 8.0 0.15 0.38 0.38 77 1015.4
20260505025549 13 51 3.2 8.0 0.20 0.38 0.38 79 1016.0
20260505025046 13 43 1.6 3.2 0.23 0.36 0.36 80 1016.0